Wind_Speed
27 29 32 29 30 31 35 37 29 26 20 16 20 20 22 22 31 55 62 75 73 68 64 62 60 54 52
25 27 27 28 29 29 32 33 27 23 17 11 13 16 15 12 11 41 76 74 72 69 63 61 58 55 52
23 26 26 26 23 23 25 28 26 19 12 13 14 11 11 12 13 40 51 61 68 66 63 60 57 56 53
20 22 22 24 18 16 24 23 23 24 14 15 14 21 16 12 7 38 70 65 66 65 63 61 57 56 55
17 19 17 20 14 18 18 24 20 24 20 21 19 24 23 17 9 22 70 71 69 66 64 61 58 55 53
15 13 19 19 19 18 15 13 5 15 25 19 25 27 28 23 15 14 67 68 68 67 66 62 59 54 52
17 17 19 18 18 17 15 14 8 20 18 11 24 26 32 25 20 29 61 69 64 65 63 60 54 51 51
16 16 15 18 18 18 18 21 12 11 16 4 20 25 34 25 19 18 41 58 62 63 59 57 55 54 51
15 17 18 17 16 19 16 14 4 7 14 7 13 17 32 37 31 14 16 49 57 58 56 55 54 51 50
12 12 11 12 11 11 13 9 6 3 11 6 14 10 5 23 35 35 19 29 51 57 52 49 50 52 52
12 11 11 7 6 8 10 13 10 4 10 9 9 8 9 5 24 34 37 41 41 40 46 55 60 62 51
14 11 10 8 4 6 7 9 8 6 4 10 5 5 7 8 7 22 35 36 46 44 43 39 42 46 54
11 10 9 9 6 4 1 2 7 6 10 12 12 17 10 10 12 14 23 28 33 43 41 38 38 42 52
10 10 9 6 6 5 5 5 6 11 9 10 15 17 25 18 27 24 12 11 26 38 47 43 39 41 46
11 10 10 6 4 7 4 7 5 6 14 19 17 25 28 22 21 25 28 33 29 36 46 40 35 35 36
12 12 10 11 8 9 6 5 9 12 15 21 29 29 23 29 22 23 25 31 33 35 36 39 31 28 28
14 12 14 11 11 11 12 11 11 13 14 19 16 20 8 3 10 16 25 29 35 31 32 29 31 27 27
Wind_Direction
302 305 304 306 309 315 314 316 322 334 345 314 293 206 211 231 243 226 212 187 176 177 177 174 174 175 173
303 304 304 305 302 303 311 327 338 337 328 352 349 201 196 203 191 202 178 168 170 174 171 172 172 172 173
296 299 300 304 307 314 323 328 344 343 342 19 29 113 176 146 171 167 157 163 168 167 168 169 171 171 174
290 297 304 310 313 331 333 332 337 356 1 29 26 55 119 147 135 179 169 171 172 169 169 170 171 172 173
296 308 317 330 344 344 344 337 330 7 5 25 35 34 69 86 123 188 174 174 173 171 170 171 171 173 171
301 310 313 321 342 347 341 348 331 347 351 3 38 29 48 56 51 185 166 166 166 167 169 169 172 173 172
294 300 306 322 343 343 341 335 299 340 359 347 27 27 44 59 54 146 161 160 162 168 170 171 174 176 180
289 292 304 322 335 332 331 330 329 337 6 7 16 33 46 59 61 84 149 157 167 171 172 175 177 178 181
282 279 284 297 311 320 330 346 341 349 17 350 15 46 42 39 58 68 123 173 177 173 174 176 177 177 176
296 300 286 281 285 305 354 342 340 328 6 27 3 12 46 23 47 63 92 156 162 166 171 173 162 145 139
280 291 295 297 293 315 336 10 349 333 351 13 18 36 71 66 41 58 81 92 110 144 158 159 157 150 133
265 274 283 271 278 289 313 332 360 346 44 33 43 82 108 98 54 59 76 87 106 103 107 113 119 131 141
264 260 268 280 256 247 257 311 342 26 61 53 105 113 107 106 125 91 87 74 97 106 107 107 112 118 116
253 254 261 265 240 237 158 149 63 59 88 87 94 112 100 99 111 109 97 101 95 106 113 116 119 123 128
223 229 231 226 223 201 166 138 108 108 90 105 108 110 97 104 89 99 103 103 104 108 113 104 112 123 127
227 221 213 206 205 183 183 175 136 129 122 121 121 109 87 71 82 106 105 106 111 114 113 106 98 112 120
224 234 221 208 198 199 183 188 148 145 140 142 141 134 115 93 71 110 118 117 114 101 108 106 113 122 129
Height
681 675 669 663 654 647 640 631 624 616 608 608 603 597 602 601 598 599 613 630 642 663 681 696 710 723 732
680 673 667 661 653 645 636 625 619 615 611 604 593 591 594 594 589 570 591 612 632 656 675 690 704 717 730
678 671 664 657 652 643 636 626 619 614 605 599 592 586 589 588 594 591 596 617 631 651 669 686 700 714 728
676 668 661 654 649 641 632 625 618 611 605 598 596 587 587 586 585 595 603 623 635 651 667 684 699 711 724
675 668 659 653 649 644 636 626 619 614 609 603 598 589 587 587 590 594 601 620 636 650 668 683 696 711 722
675 670 663 656 653 649 642 635 627 618 617 608 600 595 591 588 590 591 600 616 633 649 665 680 695 709 721
675 672 666 661 657 651 647 643 637 628 620 615 608 602 594 596 596 598 604 615 633 650 665 680 695 708 723
675 672 669 664 660 657 652 645 637 632 626 624 616 607 608 606 608 610 613 621 640 653 667 681 695 709 723
672 670 668 665 662 658 653 648 641 637 633 632 627 625 621 622 621 624 627 635 646 656 670 683 695 710 723
670 668 666 665 663 661 657 652 648 642 641 639 636 633 637 642 638 635 636 642 648 659 673 686 696 707 722
668 667 665 664 663 661 658 656 654 652 648 646 646 644 646 655 655 652 652 654 653 667 679 687 695 704 722
665 665 664 664 663 662 661 660 659 659 656 652 650 650 651 663 668 670 667 670 670 681 690 700 704 715 719
663 663 664 662 663 664 663 663 662 659 659 658 657 659 661 666 672 679 678 685 688 688 701 710 716 723 723
662 662 663 664 663 664 666 666 665 664 663 664 665 666 668 674 676 682 685 692 700 701 706 717 726 729 731
658 660 662 663 664 664 664 666 669 670 669 669 669 672 678 683 685 690 695 700 707 708 711 723 735 741 745
656 658 660 663 664 666 667 667 670 672 672 673 675 680 687 693 696 700 704 707 714 719 724 727 743 752 758
653 655 657 659 662 664 667 669 671 673 675 677 681 682 691 701 710 711 711 715 720 727 733 739 747 762 768